Lapse_Rate
3.2 3.2 2.9 2.7 3.0 3.2 3.2 2.9 3.0 2.8 2.7 2.1 2.0 1.6 1.5 0.8 0.3 -0.2 -0.5 -0.9 -1.3 -1.7 -2.4 -2.7 -2.2 -2.0 2.9 8.1 8.1 7.2 3.7 2.2 6.8 8.8 9.0 8.5 7.9 7.6 6.5 6.8 7.1 6.5 6.7 7.3 7.5 7.5 7.6
3.4 2.5 2.8 2.5 2.5 2.9 3.0 3.2 3.0 2.9 2.7 2.5 2.2 1.9 1.5 0.9 0.7 -0.6 -0.9 -0.8 -1.3 -2.2 -2.5 -2.5 -2.3 -1.9 6.6 6.9 8.1 7.3 7.5 7.7 9.4 9.3 8.9 8.8 8.1 8.2 7.3 7.0 6.6 7.1 7.1 7.2 7.5 7.4 7.5
4.4 3.4 2.6 2.6 2.2 2.4 2.8 3.1 3.0 2.9 2.8 2.7 2.6 2.2 1.6 1.4 0.9 0.0 -0.9 -1.3 -1.4 -2.1 -2.8 -2.1 -1.2 3.0 8.1 7.9 8.6 8.2 7.5 8.7 8.9 9.4 8.6 9.0 8.9 8.1 7.7 6.5 7.6 7.3 6.5 6.5 6.8 7.0 6.6
4.1 4.3 3.0 2.8 2.4 2.1 2.2 2.7 3.0 3.2 2.9 2.9 2.7 2.4 1.9 1.5 1.1 0.3 -0.5 -1.3 -1.8 -2.3 -2.1 -1.4 -1.2 5.0 7.7 8.0 8.2 8.7 8.8 9.1 8.5 9.0 9.2 9.2 9.1 8.3 7.7 7.8 7.1 6.5 6.5 6.5 6.5 6.7 7.0
3.7 4.4 4.0 3.6 2.4 2.4 1.9 2.3 2.7 3.0 3.1 2.7 2.9 2.4 2.2 2.0 1.3 0.7 -0.2 -1.0 -1.8 -1.4 -1.2 -1.3 3.7 7.0 7.4 6.9 8.9 8.6 8.6 8.8 9.1 8.9 8.7 8.5 8.8 7.7 7.5 6.5 6.5 6.5 6.5 6.5 6.5 6.7 6.5
4.4 4.0 4.7 3.9 3.1 2.7 2.0 1.8 2.1 2.7 3.2 3.0 2.9 2.6 2.4 2.2 1.6 0.9 0.0 0.6 -1.1 -1.1 1.2 3.2 5.0 6.8 8.1 7.9 7.9 7.7 8.6 8.2 8.5 8.5 8.2 8.0 7.7 6.5 6.5 6.5 6.5 6.5 6.5 6.5 6.5 6.5 6.5
2.4 5.0 3.7 4.2 3.6 3.3 2.9 1.9 1.7 2.3 2.7 3.2 3.0 2.7 2.5 2.1 2.0 1.1 1.8 5.3 7.2 7.4 7.2 6.6 7.4 7.4 7.9 8.5 6.7 8.2 8.8 8.8 8.6 7.8 6.5 7.2 6.5 6.5 6.5 6.5 6.5 6.5 6.5 6.5 6.5 6.5 6.5
6.0 3.8 3.9 3.7 4.0 3.5 3.2 2.6 1.8 1.9 2.3 3.1 3.1 2.7 2.6 2.4 2.2 1.6 3.7 6.9 5.1 5.3 7.1 5.0 4.7 5.0 5.6 6.7 7.6 8.3 8.6 7.6 7.2 6.5 6.7 6.5 6.5 6.5 6.5 6.5 6.5 6.5 6.5 6.5 6.5 6.5 6.5
5.8 5.5 3.0 2.4 4.5 3.7 3.7 2.9 2.2 1.9 2.2 2.9 3.1 2.9 2.8 3.1 2.2 3.2 6.0 6.4 5.7 4.8 7.1 7.3 6.7 7.6 8.0 6.8 7.4 7.7 8.5 7.8 6.7 6.5 6.5 6.5 6.5 6.6 6.5 6.5 6.5 6.5 6.5 6.5 6.5 6.5 6.5
5.9 5.0 3.6 2.1 3.7 4.2 3.7 3.2 2.6 2.2 2.1 2.7 3.1 3.0 3.0 3.3 3.9 5.0 6.8 5.6 4.3 4.0 6.5 6.5 6.8 7.7 7.2 7.8 6.9 8.5 8.7 7.8 6.7 6.5 6.5 6.5 6.6 6.5 6.5 6.5 6.5 6.5 6.5 6.5 6.5 6.5 6.5
6.1 5.3 4.7 5.0 3.5 4.7 4.0 3.6 3.2 2.6 2.4 2.7 3.0 3.2 3.2 3.1 5.9 6.8 6.0 5.0 4.2 5.2 6.5 6.5 6.7 7.9 8.2 7.2 7.4 7.5 8.5 7.9 6.5 6.5 6.5 6.5 6.5 6.5 6.5 6.5 6.5 6.5 6.5 6.5 6.5 6.5 6.5
6.4 5.9 5.4 5.1 5.5 4.2 4.1 3.9 3.4 2.7 2.7 2.9 2.9 3.3 3.1 4.0 4.8 6.0 4.7 4.8 5.6 6.5 6.5 6.5 6.8 6.6 6.5 7.0 7.0 7.6 7.6 8.2 7.7 6.5 6.5 6.5 7.2 6.6 6.5 6.5 6.5 6.5 6.5 6.5 6.5 6.5 6.5
6.5 6.0 5.8 5.3 4.4 4.3 3.4 3.9 2.9 2.9 3.0 3.3 2.9 3.0 4.3 6.3 7.9 5.3 4.6 6.6 6.5 6.5 6.5 6.5 6.5 6.5 6.5 6.5 6.5 6.5 6.5 6.5 6.5 6.5 6.5 6.5 6.5 6.5 6.8 6.5 6.5 6.5 6.5 6.5 6.5 6.5 6.5
6.5 6.3 6.0 5.7 4.9 4.6 3.4 3.6 3.6 3.3 3.2 3.3 3.0 3.1 4.0 7.0 5.2 4.8 6.6 6.6 6.5 6.5 6.5 6.5 6.5 6.5 6.5 6.5 6.5 6.5 6.5 6.5 6.5 6.5 6.5 6.5 6.5 6.5 6.5 6.5 6.5 6.5 6.5 6.5 6.5 6.5 6.5
6.9 6.6 6.0 5.6 4.8 4.8 4.5 3.4 3.5 3.4 3.2 3.1 3.1 5.4 5.6 6.4 5.0 5.5 7.5 6.5 6.5 6.5 6.5 6.5 6.5 6.5 6.5 6.5 6.5 6.5 6.5 6.5 6.5 6.5 6.5 6.5 6.5 6.5 6.5 6.5 6.5 6.5 6.5 6.5 6.5 6.5 6.5
6.8 6.6 6.3 5.7 5.3 4.8 4.9 3.6 3.3 3.3 3.1 3.1 5.3 5.6 5.9 5.4 5.1 7.0 6.6 6.5 6.5 6.6 6.5 6.5 6.5 6.5 6.5 6.5 6.5 6.5 6.5 6.5 6.5 6.6 6.8 6.5 6.5 6.5 6.5 6.7 6.6 6.5 6.5 6.5 6.5 6.5 6.5
6.5 6.7 6.6 5.9 5.2 4.4 4.9 4.0 3.6 3.3 3.0 4.9 5.5 6.4 6.3 6.0 6.9 6.5 6.5 6.5 6.5 7.1 6.9 6.5 6.5 6.5 6.5 6.5 6.5 6.5 6.5 6.5 6.5 6.5 6.8 6.5 6.5 6.5 6.5 6.5 6.5 6.5 6.5 6.5 6.5 6.5 6.5
6.4 6.5 6.8 6.2 5.5 5.1 5.3 4.9 3.9 3.3 3.3 4.8 6.3 6.5 3.3 6.1 6.5 6.3 6.5 6.5 6.2 6.6 7.1 6.5 6.5 6.5 6.5 6.5 6.5 6.5 6.5 6.5 7.1 6.8 6.5 6.5 6.5 6.5 6.5 6.5 6.5 6.5 6.5 6.5 6.5 6.5 6.5
6.6 6.3 6.8 6.2 5.2 4.6 5.2 5.3 4.4 3.8 4.1 6.1 6.4 6.8 2.5 3.9 6.5 6.5 6.5 6.5 6.7 6.5 6.5 6.5 6.5 6.5 6.5 6.5 6.5 6.5 6.5 6.9 7.0 6.6 6.5 6.5 6.5 6.5 6.5 6.5 6.5 6.5 6.5 6.5 6.5 6.5 6.5
6.6 6.5 6.5 6.2 5.6 4.0 5.6 5.1 4.8 4.0 4.6 7.2 5.0 6.5 4.4 4.3 7.1 6.5 6.5 6.5 6.5 6.7 6.6 6.7 6.5 6.6 6.5 6.5 6.5 6.5 6.5 6.5 7.0 6.8 5.9 6.6 6.5 6.5 6.5 6.5 6.5 6.5 6.5 6.5 6.5 6.5 6.5
6.5 6.4 6.3 6.3 6.0 4.8 4.5 5.3 4.4 4.1 4.5 8.0 6.8 6.6 6.1 6.5 6.4 6.5 6.5 6.5 6.5 6.5 6.7 7.0 6.5 6.5 6.5 6.5 6.5 6.5 6.5 6.5 6.6 6.8 6.7 6.5 6.5 6.5 6.5 6.5 6.5 6.5 6.5 6.5 6.5 6.5 6.5
6.7 6.3 6.4 6.2 6.0 4.5 4.7 4.7 4.3 4.2 4.4 7.3 5.3 6.6 7.3 6.9 6.6 6.5 6.5 6.5 6.5 6.5 6.5 6.5 6.5 6.5 6.5 6.5 6.5 6.5 6.5 6.5 6.5 6.5 6.5 6.5 6.5 6.5 6.5 6.5 6.5 6.5 6.5 6.5 6.5 6.5 6.5
7.3 6.5 5.9 5.7 6.0 5.5 4.6 4.5 4.7 4.2 4.7 6.3 5.8 5.4 7.5 6.4 6.5 6.5 6.5 6.5 6.5 6.5 6.6 6.8 6.6 6.5 6.5 6.5 6.8 7.1 6.7 6.3 6.5 6.5 6.5 6.5 6.5 6.5 6.5 6.5 6.5 6.5 6.5 6.5 6.5 6.5 6.5
7.4 6.3 5.8 6.2 6.3 5.6 4.4 4.2 5.0 4.6 4.7 3.5 5.6 6.2 6.6 6.5 6.5 6.5 6.5 6.5 6.5 6.5 6.5 6.8 6.8 6.5 6.4 5.6 6.0 6.2 6.4 6.8 6.7 6.6 6.7 6.5 6.5 6.5 6.5 6.5 6.5 6.5 6.5 6.5 6.5 6.5 6.5
7.0 6.4 6.3 6.6 6.1 4.9 5.2 4.9 4.5 4.2 3.8 3.4 3.4 7.2 6.1 6.5 6.6 6.5 6.6 6.5 6.8 7.0 6.6 6.6 6.7 6.3 6.2 5.8 6.5 6.5 6.5 6.5 6.5 6.5 6.5 6.5 6.5 6.5 6.5 6.5 6.5 6.5 6.5 6.5 6.5 6.5 6.5
6.7 6.6 6.7 6.3 5.6 5.0 5.3 5.0 4.3 3.6 4.1 4.0 2.7 4.9 5.7 6.4 6.5 7.1 6.6 6.8 6.5 6.5 6.5 6.7 5.5 4.9 5.3 6.5 6.5 6.5 6.5 6.5 6.5 6.5 6.5 6.5 6.5 6.5 6.5 6.5 6.5 6.5 6.5 7.1 6.7 6.5 6.6
6.7 6.9 6.3 6.4 5.3 5.9 5.0 4.9 4.1 3.5 3.7 4.9 2.0 0.8 4.3 5.2 3.5 7.0 6.6 6.6 6.8 6.6 6.5 6.6 6.1 6.1 5.2 6.5 6.5 6.5 6.5 6.5 6.5 6.5 6.5 6.5 6.5 6.5 6.5 6.5 6.5 6.5 6.7 7.3 6.5 6.5 6.9
6.9 6.7 6.3 6.0 6.2 5.9 4.8 4.5 3.6 3.5 3.8 3.8 0.1 -0.6 4.2 3.1 3.7 2.8 4.2 6.1 5.6 6.0 6.5 6.3 6.4 6.4 6.7 6.5 6.5 6.5 6.5 6.5 6.5 6.5 6.5 6.5 6.5 6.5 6.5 6.5 6.5 7.0 6.8 6.5 6.7 7.2 7.4
6.8 6.5 6.2 6.0 6.1 5.7 4.8 3.9 3.4 3.3 3.4 1.5 0.8 -0.6 -0.6 0.2 4.0 2.7 2.8 2.3 2.4 3.9 4.3 6.2 6.4 6.8 7.1 6.5 6.5 6.5 6.5 6.5 6.5 6.5 6.5 6.5 6.5 6.5 6.5 6.5 6.7 7.6 6.9 7.7 7.7 7.3 7.5
Wind_Speed
28 26 24 24 23 23 22 19 18 16 16 12 13 12 14 15 18 18 21 26 25 22 21 21 21 15 6 5 3 5 3 7 8 6 10 11 12 11 11 7 7 12 10 7 9 9 14
29 28 26 25 25 24 22 21 20 18 16 15 14 14 14 16 22 19 20 24 27 25 22 20 13 7 4 3 4 3 6 6 5 6 7 8 6 7 6 8 9 1 9 13 13 15 16
30 29 28 25 26 26 24 24 22 20 17 16 16 15 14 18 22 23 24 22 27 28 22 13 6 4 1 5 0 2 3 3 0 3 3 3 2 8 3 6 3 8 13 13 12 6 7
21 27 27 29 27 28 27 26 24 22 19 18 17 14 15 16 21 25 27 24 27 26 11 3 5 4 3 1 2 0 2 5 3 4 5 3 4 5 6 2 7 10 11 11 9 4 1
15 27 28 29 30 29 27 27 26 24 21 17 18 14 15 17 20 24 27 29 21 7 2 6 5 5 4 4 2 1 2 1 3 4 2 3 5 4 5 10 9 8 10 7 6 2 3
19 21 30 29 29 29 29 28 26 25 23 19 18 16 14 17 18 22 30 24 3 4 4 5 3 4 2 1 3 5 1 1 2 6 6 6 5 7 7 8 5 5 8 7 8 3 9
23 26 21 30 30 30 29 27 27 26 24 20 18 15 14 14 17 19 15 3 4 3 2 2 2 4 1 3 2 6 3 3 3 3 9 6 10 8 1 5 6 7 10 13 15 13 12
25 24 20 21 32 32 31 27 27 27 24 22 19 15 14 13 14 17 7 2 4 2 7 4 2 5 3 4 4 7 5 5 2 3 4 6 11 4 3 5 7 7 10 13 19 14 18
22 24 22 16 29 33 31 28 27 27 26 24 20 16 12 12 10 6 2 2 3 5 5 3 4 3 2 3 2 7 8 3 3 3 5 6 2 3 6 6 7 10 10 16 17 24 20
25 20 25 27 25 30 29 28 26 26 26 25 23 16 12 7 3 2 2 6 1 5 5 6 5 5 5 3 2 3 3 3 5 0 2 6 3 5 6 7 8 15 11 12 18 15 14
25 23 20 25 28 24 26 25 27 26 26 27 24 19 15 12 2 3 5 1 5 2 5 8 4 3 3 3 7 5 3 5 6 4 5 2 5 9 15 16 8 12 11 13 18 17 20
28 25 25 26 29 24 25 27 29 26 26 26 25 22 16 4 2 2 6 5 3 2 7 7 4 5 7 4 3 3 4 5 2 6 9 13 3 7 13 13 12 11 11 15 16 10 9
29 28 26 26 29 27 30 31 26 26 27 28 26 25 16 8 4 9 6 3 4 6 4 6 4 5 6 4 5 4 4 5 5 4 9 4 8 4 5 9 3 6 12 6 6 7 9
31 28 28 25 21 34 28 31 29 30 29 28 27 25 9 6 7 7 4 4 9 6 6 3 4 6 5 6 3 5 5 8 5 7 8 5 4 5 5 3 6 13 6 4 7 9 15
32 31 29 28 24 24 29 34 31 32 30 28 27 7 4 7 7 4 5 7 8 10 7 8 4 5 6 6 2 5 5 7 2 8 4 5 5 2 4 4 5 2 5 4 11 17 11
32 32 30 30 26 27 29 28 32 32 32 35 7 6 4 12 11 4 6 13 11 3 5 5 10 6 6 7 4 4 2 3 3 5 4 2 6 8 8 6 8 11 4 5 4 5 8
31 32 31 28 25 27 26 28 27 33 38 35 6 6 7 15 5 4 10 11 16 5 2 5 7 5 7 4 6 5 4 2 5 3 5 5 7 3 1 9 11 8 10 7 4 6 5
30 31 30 29 27 20 32 30 31 33 39 20 8 7 4 10 8 4 10 13 9 13 4 3 4 10 11 8 5 6 9 9 7 5 9 3 2 5 9 4 7 11 12 14 5 7 6
32 29 28 27 24 23 27 36 36 38 43 9 9 3 1 4 11 8 3 8 10 10 7 8 10 8 8 8 5 14 9 3 2 7 5 5 4 3 3 3 4 8 11 15 8 1 15
33 31 28 27 22 17 29 33 39 42 42 11 5 5 2 3 7 21 9 8 14 5 4 6 5 5 5 7 9 6 7 2 5 1 1 2 4 8 11 13 6 5 10 12 12 8 18
33 32 30 27 21 18 17 26 37 44 42 11 7 6 8 8 6 16 17 15 16 9 6 7 4 11 10 6 9 11 11 2 2 4 1 3 5 4 7 9 11 15 14 15 17 19 11
32 29 28 24 22 17 24 23 36 42 41 12 7 5 6 6 16 16 20 16 21 17 11 9 12 13 17 15 12 12 6 6 5 4 5 2 2 2 4 12 13 17 17 20 22 20 19
31 29 27 25 22 19 23 22 32 40 34 8 4 4 10 11 15 17 15 21 22 17 10 14 15 15 11 16 3 1 2 3 7 8 7 5 3 3 6 1 6 14 19 21 17 12 11
29 28 26 23 22 20 20 22 37 36 36 3 6 6 5 4 13 17 20 18 18 22 16 6 5 10 7 16 11 6 8 6 2 7 7 6 4 3 3 3 7 5 2 3 9 8 10
28 27 23 22 22 15 21 30 37 39 34 3 2 8 5 5 12 15 18 23 21 16 11 5 2 2 14 4 3 2 1 2 5 2 4 3 4 3 4 7 10 13 6 7 7 10 10
27 25 23 20 18 14 26 32 37 34 33 4 1 2 3 8 11 13 15 17 8 6 4 3 6 4 4 2 3 7 7 4 5 6 6 4 1 5 4 5 6 6 8 4 1 9 9
25 23 21 20 17 21 23 29 33 33 32 14 1 4 3 4 3 9 10 13 7 6 4 5 4 2 2 3 4 5 5 2 7 8 8 5 3 9 8 7 8 1 10 7 3 2 7
22 21 19 18 18 16 18 30 32 31 31 12 3 5 2 4 3 6 3 5 5 4 6 6 4 1 2 5 5 4 4 6 4 4 6 10 7 5 7 6 10 11 11 6 3 4 7
18 17 18 18 15 14 14 23 28 28 25 11 3 3 7 7 3 3 7 8 6 4 7 8 1 6 6 4 3 3 3 4 4 4 5 6 5 2 7 5 3 15 6 12 5 6 8
Wind_Direction
215 216 215 215 224 235 238 238 246 248 258 265 277 287 299 308 309 320 318 317 314 317 313 315 308 309 298 246 82 54 96 171 191 188 197 193 200 213 227 231 216 243 265 268 264 262 263
211 207 213 212 215 223 229 235 240 244 252 263 271 281 296 305 306 316 317 316 316 315 316 314 299 279 273 254 8 74 115 141 231 219 194 209 224 215 239 240 241 14 276 279 276 273 276
215 209 208 212 214 214 220 229 234 237 244 255 267 280 291 303 307 316 317 318 315 313 316 317 283 261 239 62 32 324 156 104 179 308 201 213 224 215 189 237 269 275 281 278 260 261 265
258 216 209 210 219 213 213 220 230 234 235 246 262 274 289 299 307 315 319 321 311 313 309 310 205 269 67 36 319 222 189 153 179 292 289 287 217 260 254 313 249 272 267 272 139 253 232
323 235 212 211 213 215 211 214 219 226 232 237 255 265 280 296 305 314 319 316 311 330 209 147 253 276 118 140 185 355 343 132 140 150 10 168 209 239 208 243 256 214 278 275 296 167 298
272 310 216 212 212 215 212 208 210 218 229 231 248 260 273 290 303 317 320 315 155 141 213 249 256 251 174 22 323 313 280 271 130 147 169 216 223 225 219 228 255 320 280 287 293 342 293
248 269 292 211 214 213 213 205 201 210 217 229 235 251 268 285 301 320 325 278 267 203 266 293 358 302 344 329 212 205 171 187 160 172 229 206 241 227 202 245 304 285 286 295 303 332 318
238 238 269 263 210 212 210 205 199 200 206 218 228 239 257 274 296 314 290 1 89 25 298 199 224 266 272 309 146 181 194 241 220 56 191 209 244 297 218 219 224 247 285 289 304 310 319
238 244 248 269 237 210 207 200 197 195 198 208 218 226 245 267 308 292 336 88 103 126 250 233 209 221 140 228 110 145 195 219 249 171 214 284 25 340 229 189 223 251 278 293 304 314 298
241 236 241 250 279 206 206 196 195 192 191 199 210 211 221 245 280 162 211 155 98 130 269 175 212 165 150 224 160 133 196 257 192 146 262 284 17 268 236 244 275 288 308 298 301 304 300
228 236 228 234 245 238 201 199 194 187 189 192 200 199 201 205 3 221 105 155 137 192 268 140 161 96 144 211 134 141 178 215 264 243 225 258 249 255 277 283 284 283 315 290 289 281 292
226 227 233 227 230 239 211 204 193 180 186 189 189 188 175 187 204 251 128 149 201 213 240 167 156 178 178 149 155 138 206 226 307 275 254 265 282 262 279 293 292 294 286 279 270 277 259
224 227 230 233 231 242 203 207 193 180 181 186 179 176 176 179 186 160 158 194 209 223 114 177 173 198 193 174 169 224 203 221 260 270 248 257 247 255 274 262 213 235 318 298 264 215 268
222 224 228 231 220 229 201 200 196 182 176 177 170 164 193 212 150 159 180 191 223 203 200 83 144 153 220 186 182 176 218 265 204 238 282 273 216 179 154 297 320 302 278 274 297 293 302
222 221 223 230 224 237 216 200 186 180 168 159 147 172 172 197 175 169 198 205 211 214 149 157 150 198 194 160 266 211 249 278 255 192 247 258 238 138 217 264 294 125 248 9 284 269 276
215 220 218 225 219 220 203 194 180 172 154 148 159 156 187 165 156 175 208 222 214 199 143 155 200 199 211 168 210 226 204 142 186 218 221 317 280 238 279 263 241 244 17 246 212 277 276
211 215 215 214 217 216 222 179 184 168 157 156 153 171 153 158 148 197 211 212 220 197 151 183 194 165 226 209 230 258 227 180 218 181 226 269 206 122 79 218 262 220 237 235 293 252 269
210 212 211 212 217 218 212 185 178 172 159 159 153 194 150 157 188 194 213 210 211 213 153 231 186 200 211 217 215 250 234 223 204 229 256 209 233 218 229 257 271 259 263 229 221 211 234
208 208 208 207 204 197 227 189 179 173 167 159 157 119 242 221 194 194 207 181 216 206 195 191 198 203 208 232 240 240 256 61 165 221 196 187 204 283 210 219 190 222 220 232 232 343 246
206 204 203 203 197 184 213 185 182 176 177 161 132 150 219 215 220 196 169 189 202 178 216 189 172 120 164 221 231 248 229 119 42 296 27 210 206 194 250 274 350 210 222 234 239 249 258
204 201 200 201 202 194 219 220 183 179 181 167 175 191 181 187 182 200 187 172 194 196 232 187 174 205 190 206 221 235 256 200 94 151 103 169 239 222 254 276 269 262 265 231 226 236 257
203 199 196 199 198 203 205 242 188 182 184 186 164 149 179 155 168 191 189 199 196 194 164 210 221 200 212 224 211 259 239 185 189 159 169 139 237 216 247 257 259 265 252 242 238 243 263
200 196 190 193 197 208 206 247 188 186 181 181 147 135 165 164 168 189 202 196 199 189 217 224 215 213 214 234 233 97 127 75 163 162 178 174 198 199 269 160 293 272 238 239 245 246 252
196 194 188 192 199 216 208 250 186 191 193 100 171 145 135 156 175 196 195 191 190 199 206 183 206 198 123 107 97 58 45 47 162 184 157 167 183 181 274 261 255 75 98 200 212 223 245
194 192 189 197 208 214 223 231 185 190 201 107 216 174 174 144 183 169 186 193 205 209 220 190 152 70 139 111 89 130 90 211 201 183 137 175 172 193 237 230 302 222 202 198 212 256 265
190 190 190 195 210 230 234 204 182 186 192 153 213 267 151 163 200 170 167 181 167 146 115 106 54 58 73 102 164 196 209 190 175 152 158 98 199 212 162 249 267 88 141 119 217 267 154
184 187 195 195 183 220 247 204 182 186 191 190 169 63 133 130 51 159 175 184 133 130 121 129 149 73 354 152 181 187 205 181 186 192 178 176 179 222 222 256 279 330 152 153 222 91 162
178 184 191 188 187 209 247 187 180 182 189 173 78 21 160 99 46 14 23 147 121 162 141 139 102 173 159 204 190 169 213 194 195 179 182 182 189 194 213 233 257 150 155 206 107 209 274
175 187 181 173 193 198 217 191 177 177 169 129 97 75 64 76 103 61 82 32 359 63 118 169 46 146 163 142 176 158 171 173 189 213 194 212 213 210 212 230 114 185 211 220 217 247 282